Lapse_Rate
6.9 7.0 6.9 7.1 6.7 6.1 5.8 5.8 5.9 5.9 6.0 6.0 6.1 5.6 5.7 5.4 5.8 5.3 5.0 4.7 4.3 4.0 3.4 3.4 3.4 3.4 3.7 4.5 5.5 6.0 6.5 6.9 7.0 7.0 7.0 6.7 6.8 6.7 6.9 6.7 6.6 6.4 6.7 6.1 6.3 6.4 6.7
7.2 7.2 7.1 7.2 7.1 7.4 6.5 5.7 5.7 5.7 5.6 5.8 5.5 5.6 5.3 5.5 5.4 5.3 4.9 4.7 4.3 4.0 3.6 3.4 3.3 3.7 3.9 4.6 5.3 5.9 6.5 7.1 7.1 7.1 6.8 6.6 6.8 6.7 6.6 6.8 6.5 6.5 6.4 6.3 6.4 6.3 5.7
7.2 7.3 7.4 7.5 7.5 7.5 7.3 6.9 5.9 6.1 5.7 5.5 5.7 5.7 5.5 5.5 5.2 5.0 5.0 4.7 4.4 4.0 3.8 3.4 3.4 4.1 4.4 4.6 5.2 6.4 6.8 7.0 7.4 7.0 6.7 6.5 6.7 6.9 6.8 6.7 6.6 6.7 6.4 6.1 5.9 5.9 6.1
7.3 7.4 7.4 7.5 7.6 7.7 7.5 7.3 6.6 5.9 5.7 5.5 5.1 5.4 5.3 5.2 5.4 5.0 5.1 4.6 4.4 4.1 4.0 3.5 3.8 4.2 4.8 5.0 5.2 6.1 6.9 6.9 7.1 7.0 6.5 6.7 6.7 6.5 6.7 6.4 6.6 6.6 6.1 6.0 5.6 6.1 6.4
7.3 7.5 7.7 7.4 7.7 7.8 7.9 7.7 7.1 6.5 6.1 6.0 5.5 5.2 5.7 5.4 5.5 5.1 5.1 4.9 4.1 4.5 4.0 3.8 4.2 4.5 4.9 5.5 5.4 5.9 6.7 7.0 6.7 6.6 6.5 6.9 6.4 6.7 6.7 6.6 6.7 6.5 6.4 6.0 6.2 6.3 6.4
7.3 7.4 7.8 8.0 8.0 8.0 8.0 7.9 7.6 6.8 6.3 6.0 5.8 5.4 5.5 5.6 5.3 5.3 5.0 4.9 4.2 4.7 4.0 4.1 4.5 4.9 5.4 6.1 6.1 6.2 7.1 7.3 6.7 6.6 6.4 6.6 6.4 6.8 6.2 6.6 6.6 6.6 6.1 6.1 6.0 5.7 6.0
7.1 7.2 7.6 7.8 8.0 8.2 8.2 7.9 7.7 7.4 6.5 6.4 5.8 5.5 5.6 5.6 5.5 5.6 5.1 4.6 4.6 5.0 4.0 4.4 5.0 5.5 6.0 6.0 6.5 7.0 7.1 6.7 6.6 6.6 6.5 6.4 6.9 7.0 6.7 6.8 6.5 6.8 7.3 5.7 5.8 5.5 5.6
7.1 7.2 7.5 7.8 8.1 8.2 8.2 8.1 7.7 7.5 6.8 6.8 6.4 5.9 5.4 5.8 5.4 5.9 5.1 4.7 5.0 5.0 4.2 4.5 5.3 5.9 6.2 6.1 6.3 6.9 6.6 6.6 6.6 6.5 6.8 6.6 6.9 6.6 7.2 7.0 6.8 6.7 6.5 6.4 6.0 5.8 5.6
7.0 7.0 7.3 7.5 7.8 8.0 8.1 8.1 8.1 7.6 7.0 6.3 6.6 5.9 5.6 5.5 5.4 6.0 5.3 4.8 5.0 5.1 4.4 4.8 5.6 6.0 6.0 6.1 6.3 6.6 6.6 6.4 6.6 6.8 6.6 6.7 7.3 7.1 6.9 6.4 6.7 6.7 7.1 6.9 6.5 5.8 5.9
6.4 6.6 6.8 6.8 7.1 7.2 7.4 7.8 7.7 7.7 7.0 6.2 6.2 6.0 5.7 5.5 5.4 5.6 5.5 4.8 5.2 5.0 4.4 5.1 5.7 5.9 6.5 6.4 6.4 6.7 6.8 6.8 6.6 6.5 6.7 6.6 6.9 7.0 6.7 6.5 6.3 6.5 6.8 6.9 6.8 6.3 5.6
5.3 5.3 5.6 5.8 5.8 6.2 6.5 6.8 7.2 7.3 7.1 6.1 6.0 5.9 5.5 5.7 5.8 5.5 5.1 4.8 5.0 4.9 2.8 5.3 5.7 6.2 6.6 6.6 6.2 6.7 6.7 6.7 6.1 5.9 6.0 6.2 6.4 6.4 6.3 6.3 6.3 6.3 6.4 6.8 6.5 6.3 6.0
5.0 5.1 5.2 5.2 5.4 5.4 5.5 6.0 6.5 6.3 6.8 6.1 5.9 5.7 5.7 5.5 5.5 5.5 5.2 4.8 4.9 4.8 3.4 5.2 5.7 6.1 6.5 6.3 6.2 6.3 6.3 6.7 6.3 6.3 6.5 6.7 6.4 6.5 6.3 6.5 6.5 6.1 6.2 6.2 6.6 6.2 6.0
5.1 5.2 5.4 5.5 5.7 5.6 5.5 5.3 5.2 5.4 5.4 6.0 5.7 5.5 5.5 5.5 5.3 5.3 5.1 4.4 4.5 4.4 5.1 5.5 5.7 6.1 6.7 6.5 6.2 6.3 6.3 6.4 6.7 6.6 6.5 6.4 6.4 6.5 6.5 6.5 6.3 6.2 6.4 5.9 6.2 6.0 5.8
5.2 5.4 5.4 5.5 5.7 5.6 5.3 5.2 5.0 5.0 4.8 5.0 5.4 5.0 5.3 5.2 5.5 5.1 4.9 4.3 4.1 4.8 5.1 5.8 5.7 5.9 6.4 6.4 6.3 6.3 6.4 6.4 6.4 6.5 6.5 6.3 6.4 6.5 6.3 6.4 6.3 6.0 6.1 6.4 6.3 6.0 6.2
5.3 5.4 5.6 5.9 6.4 6.6 6.7 6.3 5.6 5.1 5.4 4.7 4.5 5.0 5.3 5.1 5.5 4.8 4.7 4.6 4.6 5.1 5.0 5.8 5.6 5.8 6.2 6.1 6.2 6.4 6.2 6.1 6.4 6.7 6.9 6.6 6.1 6.2 6.2 6.4 6.3 6.3 6.4 7.0 6.8 6.4 6.3
5.4 5.5 6.1 6.7 7.1 7.0 6.7 6.9 6.2 5.5 5.6 5.4 4.8 4.8 5.0 5.1 5.3 4.5 4.1 4.7 4.4 4.8 4.6 5.6 5.8 5.9 6.2 6.1 6.2 6.4 6.4 6.4 6.6 6.7 7.0 6.7 6.3 6.5 6.4 6.4 6.6 6.8 7.1 7.4 7.5 6.2 6.4
5.3 5.7 6.5 7.1 7.3 6.9 6.7 5.8 5.7 5.6 4.7 5.1 5.2 4.8 5.2 5.1 5.4 3.7 4.2 4.4 4.3 4.1 4.3 5.3 5.9 6.1 6.0 6.2 6.1 6.0 6.6 6.5 6.5 6.6 6.8 6.8 6.6 6.3 6.6 6.8 7.0 6.9 7.1 7.3 7.2 7.0 5.7
5.5 6.1 6.7 7.1 7.5 7.1 6.4 5.7 5.7 5.8 4.6 4.7 4.8 4.9 5.3 5.2 4.4 3.8 4.5 4.6 4.2 3.5 3.8 4.9 5.7 6.1 6.1 6.0 6.0 6.1 6.2 6.5 6.4 6.4 6.6 6.8 6.7 6.3 6.4 6.5 6.8 7.1 7.0 7.3 7.2 6.6 6.6
5.9 6.4 6.8 7.2 7.6 6.9 6.4 5.8 5.8 5.8 5.0 4.8 4.5 4.4 4.8 5.4 4.0 4.3 4.7 4.4 3.6 3.1 3.4 4.2 5.5 6.0 6.1 6.3 6.4 6.3 6.1 6.1 6.3 6.5 6.6 6.7 6.5 6.2 6.3 6.5 6.7 6.8 6.8 7.0 7.1 7.1 6.8
5.9 6.6 7.0 7.4 7.5 7.0 6.5 5.9 5.9 5.9 4.9 4.7 4.0 4.2 4.1 4.0 3.9 4.1 4.5 4.0 3.1 2.8 3.2 3.7 5.0 5.9 6.3 6.1 6.1 6.0 5.9 5.9 6.1 6.2 6.4 6.6 6.6 6.8 6.0 6.4 6.5 6.7 6.9 6.8 6.8 6.9 7.2
6.0 6.8 7.1 7.4 7.0 6.7 6.5 6.0 5.6 5.8 5.1 4.5 4.0 4.3 4.3 4.1 3.8 4.3 3.8 3.6 2.5 2.6 3.1 3.5 4.2 5.5 6.0 6.2 6.5 6.2 5.9 5.8 5.9 6.1 6.1 6.5 6.5 6.4 6.4 6.3 6.3 6.5 6.7 7.0 7.0 6.9 6.7
6.3 6.8 6.8 6.7 6.2 6.4 6.4 5.3 5.2 5.5 4.9 4.4 3.9 4.0 4.4 4.5 4.1 3.4 3.5 3.5 2.3 2.4 2.8 3.2 3.9 4.7 5.9 6.2 6.4 6.4 6.3 5.9 6.1 5.8 5.9 6.2 6.3 6.2 6.2 6.1 6.2 6.3 6.3 6.6 6.8 6.9 6.8
6.3 6.6 6.3 6.0 5.6 5.1 5.1 5.0 5.5 4.9 4.7 3.9 3.9 4.2 4.3 4.0 4.5 3.7 3.7 3.2 2.3 2.4 2.7 3.1 3.5 4.2 5.1 5.6 6.2 6.1 6.0 5.9 5.8 5.9 5.7 5.8 6.1 6.0 6.1 6.2 6.2 6.4 6.8 6.6 6.6 6.8 6.6
6.2 6.1 5.5 5.4 4.8 4.3 4.4 5.0 4.9 4.6 4.1 3.9 3.9 4.1 4.4 4.0 4.6 4.2 3.4 3.1 2.5 2.4 2.8 2.8 3.0 3.6 4.4 4.7 5.4 5.6 6.1 5.9 6.0 5.8 5.7 5.9 6.0 6.0 5.9 6.0 4.5 6.3 6.5 6.6 6.7 6.6 6.4
6.0 5.6 5.0 4.6 4.0 3.8 4.7 5.3 5.2 4.8 4.3 4.1 4.1 4.1 4.0 3.7 3.7 3.2 2.9 2.6 2.4 2.4 2.7 2.7 2.8 3.2 3.6 4.3 5.0 4.8 5.3 5.7 5.7 6.0 5.9 5.8 6.0 6.1 6.0 5.6 6.1 6.7 6.6 6.6 6.6 6.7 6.7
5.6 5.4 4.3 3.8 3.9 4.2 4.9 4.9 4.5 4.5 3.9 4.0 3.9 4.1 4.1 3.6 3.7 3.1 2.7 2.5 2.4 2.5 2.6 2.9 2.9 3.0 3.2 3.6 3.7 4.3 4.4 5.3 5.1 5.4 5.7 5.8 5.8 5.8 5.4 5.6 5.6 6.5 6.6 6.7 6.6 6.5 7.0
5.1 4.3 3.3 3.4 3.9 4.7 4.7 4.7 4.5 4.6 4.3 3.8 3.5 3.5 4.1 3.6 3.5 3.2 2.7 2.5 2.4 2.4 2.5 2.8 2.9 3.0 3.0 3.2 3.3 3.5 4.0 4.3 4.8 4.6 5.1 5.3 5.6 5.9 5.7 5.7 6.1 6.4 6.5 6.6 6.2 6.7 6.8
4.4 3.6 3.2 3.6 4.0 4.3 4.7 4.8 4.5 4.2 3.9 3.9 3.7 3.5 3.8 3.7 3.6 3.2 2.7 2.6 2.3 2.4 2.7 2.8 2.8 2.9 3.0 3.1 3.3 3.6 3.8 4.0 4.0 4.2 4.3 4.5 4.5 4.6 4.8 5.4 5.6 6.3 6.4 6.5 6.6 6.6 6.5
3.8 3.3 3.9 4.0 4.3 4.6 4.9 4.8 4.4 4.0 3.9 3.6 3.5 3.8 3.5 3.6 3.5 3.1 2.8 2.6 2.5 2.5 2.6 2.8 2.8 2.9 3.0 3.1 3.2 3.5 3.7 3.7 3.9 4.0 4.0 4.0 4.5 4.7 5.0 5.5 5.7 5.9 6.2 6.2 6.1 6.3 6.3
Wind_Speed
28 28 27 28 29 30 31 32 33 22 18 18 17 15 15 14 15 13 11 11 12 12 17 9 10 9 3 1 7 6 8 4 1 4 3 5 5 2 9 9 7 14 9 10 5 9 3
28 28 29 29 30 29 30 32 33 20 20 18 18 14 13 13 14 14 11 10 14 10 14 11 9 5 2 6 4 6 7 4 1 1 3 6 5 12 8 12 14 10 4 12 9 13 6
30 29 29 30 30 33 30 30 35 41 20 18 19 14 13 13 14 15 13 12 11 10 13 12 10 2 2 11 2 6 6 2 2 2 3 3 2 6 4 2 5 7 10 3 15 8 6
28 31 31 30 30 30 31 29 28 35 18 20 16 16 14 12 14 12 13 14 9 9 10 11 8 1 5 4 3 2 5 2 2 1 3 4 4 11 4 2 3 9 4 5 11 11 5
29 30 30 33 32 32 32 30 28 25 28 40 18 15 14 10 13 12 13 13 9 8 10 8 1 2 6 1 3 2 0 3 4 3 4 6 6 5 6 4 5 5 6 2 1 1 5
29 30 30 30 31 33 33 34 31 29 27 33 16 12 9 11 11 12 13 16 8 3 4 1 1 3 4 4 2 4 2 4 3 7 2 4 2 4 3 3 5 6 8 4 10 3 6
30 30 31 30 29 30 33 35 35 34 28 33 15 13 10 10 8 12 5 3 3 2 2 6 4 3 4 1 1 0 2 1 4 2 1 2 1 3 1 2 4 3 10 3 10 10 6
31 31 31 30 32 31 30 34 35 36 31 31 14 12 9 7 8 10 2 3 2 2 5 7 5 5 1 2 1 4 3 3 1 1 1 2 2 3 5 6 5 9 15 11 8 7 2
33 32 32 31 32 31 32 32 35 34 36 29 12 10 6 6 7 4 3 4 3 4 0 4 3 3 3 3 3 4 1 3 3 2 3 2 3 3 5 7 5 4 8 7 8 5 3
32 33 33 35 33 32 33 33 31 33 35 32 17 11 10 5 3 3 3 2 4 4 4 3 2 3 3 3 1 3 5 3 1 4 3 4 3 2 6 6 4 3 5 14 12 7 2
31 34 35 36 36 36 35 34 33 34 34 40 33 16 13 12 2 3 3 6 5 3 3 2 2 2 2 1 3 6 3 5 3 4 3 2 1 5 2 8 8 5 10 10 11 7 2
32 30 31 32 33 36 37 37 36 35 34 36 39 19 15 5 2 3 9 4 3 5 5 1 3 2 0 2 2 3 4 4 5 5 5 3 1 3 3 3 1 11 15 10 8 3 1
32 32 33 33 35 34 35 36 37 36 39 29 40 20 13 7 4 12 6 0 5 3 3 3 4 3 2 1 2 1 3 2 2 3 5 5 2 2 3 3 15 8 3 2 3 2 2
30 31 31 33 34 35 34 36 38 38 40 38 43 19 12 8 7 12 3 3 3 3 5 3 4 3 3 2 1 2 1 2 4 4 4 3 3 6 9 3 8 5 1 3 4 2 1
32 32 33 33 33 36 37 38 38 39 44 53 11 3 2 3 12 3 3 3 7 6 6 7 4 2 1 1 1 2 1 1 1 1 4 4 4 3 2 2 2 2 2 1 6 2 3
33 34 33 33 35 35 37 39 38 38 48 12 8 5 4 10 11 2 2 4 4 4 4 6 5 4 4 3 1 2 0 1 2 0 1 3 4 3 4 3 5 2 5 2 3 3 2
34 34 35 35 33 33 36 37 36 32 32 22 1 3 5 12 3 2 3 6 4 5 3 6 6 4 4 5 4 1 3 2 1 2 3 3 3 4 2 5 2 4 3 6 4 3 3
35 36 36 36 35 34 35 35 33 30 26 13 3 2 6 8 5 3 4 6 3 4 2 2 5 3 5 5 4 3 3 1 4 1 3 2 4 3 0 3 0 2 3 3 4 2 2
36 37 37 34 34 34 34 32 32 27 28 4 3 2 3 0 4 4 2 2 3 5 5 4 4 4 4 6 4 2 3 3 3 3 2 2 2 3 6 5 4 3 2 4 5 3 2
36 38 36 35 34 34 34 31 28 30 33 12 4 3 2 3 2 5 5 5 6 4 4 3 3 3 4 4 1 6 3 2 2 3 6 4 3 4 6 4 2 1 2 4 4 3 3
36 37 36 35 34 34 33 31 26 30 29 5 4 4 2 5 8 3 4 5 12 5 2 5 1 3 6 3 2 3 4 3 3 2 3 3 3 2 3 3 3 2 3 4 4 4 4
37 37 35 35 34 34 33 26 29 31 40 6 4 3 2 2 9 7 3 5 11 4 5 3 6 4 4 6 5 6 5 3 2 3 3 3 2 2 2 3 3 1 3 3 3 2 5
38 37 36 35 34 33 31 25 23 33 17 2 2 2 4 3 6 10 5 4 10 8 4 6 6 4 5 4 4 5 4 3 5 6 3 2 4 3 2 3 4 4 4 6 5 4 5
37 37 36 35 33 32 30 24 31 29 18 2 2 2 2 3 5 10 10 5 8 5 6 3 5 5 3 5 6 7 8 8 6 4 3 4 3 2 1 3 2 4 3 3 5 1 3
37 36 36 35 34 32 23 32 33 25 13 3 2 2 1 2 2 4 5 4 9 7 4 4 3 1 5 5 5 4 4 3 3 4 3 2 4 2 3 2 5 2 3 5 5 3 2
35 36 35 35 32 28 23 31 31 13 19 4 2 2 2 3 1 4 3 3 4 4 3 3 3 2 4 3 3 3 4 3 3 2 5 4 6 3 1 3 4 5 3 1 3 4 2
34 34 34 33 31 26 25 28 24 25 19 6 2 1 2 3 3 4 1 3 3 5 4 3 2 3 3 2 3 3 2 4 4 6 3 2 2 2 2 1 6 6 4 2 4 5 4
32 33 32 31 27 26 31 31 10 30 22 7 1 4 2 3 3 4 4 3 3 3 5 4 4 2 3 3 2 2 3 5 3 5 5 5 5 3 3 2 7 3 2 5 4 2 5
32 31 30 26 24 30 33 17 25 28 22 10 3 2 3 5 3 1 1 2 3 2 4 3 3 2 3 4 1 3 2 1 4 3 0 3 6 4 7 5 2 2 3 2 2 4 4
Wind_Direction
349 347 348 349 350 354 352 345 335 248 251 259 264 271 282 286 297 297 301 305 296 304 292 293 293 316 17 250 254 263 309 306 27 164 224 198 191 225 202 226 208 221 206 200 176 350 6
343 344 344 345 344 345 349 347 341 281 247 250 256 260 273 288 294 295 296 305 300 300 291 297 303 336 126 274 248 310 314 297 321 277 266 167 213 223 221 229 200 198 223 186 206 261 46
343 341 342 343 341 341 343 345 347 344 249 253 254 257 262 276 285 294 298 299 301 300 290 290 296 295 231 249 300 323 16 2 316 335 287 209 278 303 299 209 201 206 186 263 217 226 33
345 344 344 339 340 341 342 343 346 350 285 260 251 251 261 274 284 293 298 296 293 285 274 277 291 284 250 260 284 324 350 288 284 72 252 261 191 259 248 247 140 154 99 138 271 161 57
346 342 343 343 341 340 340 340 338 334 331 337 237 245 260 268 282 292 294 290 283 272 272 265 286 177 271 142 273 308 338 282 302 236 239 259 231 209 193 177 114 172 122 131 183 114 100
347 344 346 339 342 342 342 341 336 333 339 337 240 237 251 262 282 290 297 292 275 258 282 206 200 278 255 303 325 318 280 271 299 307 254 230 219 357 24 65 154 158 106 274 108 109 162
346 345 343 342 341 339 339 341 341 336 329 337 237 224 231 248 278 288 319 310 53 41 241 203 173 241 299 13 355 230 296 303 249 260 277 278 30 94 109 145 20 246 169 94 95 76 107
345 342 342 342 345 343 342 340 339 336 327 333 236 210 219 254 275 279 124 248 181 159 296 225 236 263 240 158 11 59 353 275 299 287 25 185 125 154 118 158 260 256 123 117 69 95 68
344 341 340 345 348 343 341 340 336 338 334 330 235 201 193 247 275 270 195 242 128 106 288 295 187 205 211 159 129 288 135 310 251 134 247 56 32 143 85 185 257 162 149 137 127 126 187
341 340 342 342 342 339 339 334 338 335 340 344 312 196 187 188 284 215 194 228 128 99 60 259 259 254 144 201 300 166 216 261 132 181 183 55 10 315 154 185 197 64 134 114 107 94 27
337 336 340 340 338 339 336 334 331 332 334 332 320 192 180 171 275 234 170 162 119 64 21 248 191 125 137 134 278 226 181 222 147 151 154 117 299 118 118 155 202 136 104 103 106 87 269
333 333 333 333 335 335 333 338 332 334 328 331 326 180 175 194 236 246 139 153 69 47 265 180 150 234 329 181 248 281 193 230 289 45 52 168 163 28 58 276 44 149 105 52 63 114 103
328 333 333 334 335 333 332 334 331 328 328 323 331 174 171 152 229 161 139 68 57 142 315 236 193 175 205 318 311 297 335 42 174 104 20 51 50 87 77 127 143 123 75 95 84 49 128
323 327 331 331 331 331 331 330 331 324 327 318 311 181 189 209 188 141 114 66 127 209 206 229 135 113 139 6 281 301 351 22 26 74 79 66 54 13 338 73 134 86 165 127 93 90 318
319 321 323 325 326 326 328 326 329 332 327 311 274 137 175 216 182 129 121 98 202 201 186 155 92 113 273 311 188 342 91 106 266 62 124 114 28 319 123 56 117 124 342 119 110 70 75
319 317 317 318 318 320 322 320 327 336 326 168 132 174 171 165 168 128 97 197 220 212 176 119 160 161 177 210 129 306 25 269 100 162 172 173 83 13 303 105 292 183 159 84 10 122 229
314 315 316 316 315 315 314 317 322 330 338 312 357 160 154 156 151 203 183 206 234 232 190 141 193 158 161 170 179 207 355 325 77 21 74 115 85 293 28 23 28 12 40 59 94 86 148
313 316 317 314 313 312 309 315 318 321 332 304 321 250 160 160 184 203 177 176 214 173 189 165 160 125 152 155 158 212 148 207 22 51 51 11 104 70 66 315 327 126 78 100 109 205 103
314 316 317 314 310 309 308 312 313 319 316 317 243 245 156 353 203 194 146 146 223 161 177 152 205 183 152 158 134 180 117 341 188 63 121 177 28 55 354 353 1 47 28 90 97 80 189
313 313 315 314 311 310 307 310 313 321 314 296 160 188 152 222 283 169 141 195 169 217 156 145 193 151 125 131 99 175 125 32 90 98 70 90 98 148 176 198 140 191 172 136 111 102 182
312 314 313 312 311 312 309 311 321 316 310 290 180 220 192 176 201 180 165 173 178 164 188 172 90 198 129 112 91 120 129 105 71 9 59 87 126 121 143 119 135 179 206 189 176 170 153
314 312 312 312 311 310 309 313 319 313 312 206 172 189 152 283 171 157 217 207 178 154 134 181 146 167 125 146 174 180 123 137 188 356 84 27 164 130 75 16 49 198 187 191 231 193 257
313 312 312 311 310 311 309 310 322 315 284 134 123 109 109 174 163 174 198 197 184 136 38 148 145 113 105 176 166 145 106 113 143 146 122 92 123 79 322 333 344 326 239 191 183 187 158
311 313 312 312 313 312 315 328 315 311 293 101 61 101 143 182 190 182 173 205 175 142 122 44 115 111 177 125 96 63 65 77 60 39 127 126 94 82 174 3 27 240 235 187 200 150 214
312 313 311 312 313 316 323 321 308 294 237 84 119 87 94 126 149 161 164 194 99 76 78 92 34 289 135 63 66 60 11 27 14 31 38 89 113 92 124 196 292 261 202 181 182 195 228
313 313 314 314 315 315 322 309 317 154 133 99 93 130 113 149 335 336 139 195 118 100 52 67 25 38 66 80 88 135 182 162 186 18 42 76 78 96 177 129 227 246 261 230 87 281 204
315 313 311 314 315 315 320 320 322 153 122 102 78 70 98 108 352 359 93 139 98 93 94 111 105 54 39 92 120 162 200 165 152 161 163 97 80 167 184 242 291 248 220 107 95 253 157
312 312 313 316 317 326 323 319 258 150 118 89 64 11 101 97 21 358 358 48 53 89 131 178 99 30 47 81 128 194 134 209 115 165 182 151 174 205 149 213 262 177 87 168 203 105 139
312 314 318 321 333 329 315 307 169 160 131 105 98 329 51 74 128 306 119 81 27 334 123 34 136 133 160 94 136 118 121 111 154 199 359 178 184 182 181 212 261 314 300 14 127 138 156